This demonstration page uses our WeatherBlox Daily Observations layout. Learn more.

Left ArrowRight Arrow

39.08367, -84.50855

Hourly Observations for July 26, 2015

Temp ( °F °C ) Dew Point ( °F °C ) Humidity (%) Winds ( mph kmh ) Pressure ( in mb ) Visibility ( mi km ) Precip ( " mm )
12:53 am 00:53 Clear 69 20.6 67 19.4 93 93 Calm 29.95 1014 8 13 0.00 0.00
1:53 am 01:53 Clear 70 21.1 68 20 93 93 Calm 29.94 1014 7 11 0.00 0.00
2:53 am 02:53 Clear with Mist and Fog 68 20 67 19.4 96 96 Calm 29.93 1014 5 8 0.00 0.00
3:53 am 03:53 Clear with Mist and Fog 67 19.4 67 19.4 100 100 Calm 29.93 1014 5 8 0.00 0.00
4:53 am 04:53 Cloudy with Mist and Fog 67 19.4 67 19.4 100 100 Calm 29.93 1014 4 6 0.00 0.00
5:53 am 05:53 Mostly Clear with Mist and Fog 68 20 68 20 100 100 Calm 29.94 1014 3 5 0.00 0.00
6:10 am 06:10 Clear with Mist and Fog 66 19 66 19 100 100 Calm 29.91 1013 3 4 0.00 0.00
6:19 am 06:19 Clear with Mist and Fog 68 20 67 19.4 96 96 Calm 29.91 1013 3 5 0.00 0.00
6:37 am 06:37 Sunny with Mist and Fog 67 19.4 67 19.4 100 100 Calm 29.91 1013 3 4 0.00 0.00
6:53 am 06:53 Sunny with Mist and Fog 66 18.9 66 18.9 100 100 Calm 29.94 1014 5 8 0.00 0.00
7:53 am 07:53 Partly Cloudy with Mist and Fog 69 20.6 69 20.6 100 100 Calm 29.95 1014 5 8 0.00 0.00
8:53 am 08:53 Cloudy 72 22.2 70 21.1 94 94 Calm 29.97 1015 7 11 0.00 0.00
9:53 am 09:53 Mostly Cloudy 77 25 71 21.7 82 82 Calm 29.96 1015 9 14 0.00 0.00
10:53 am 10:53 Mostly Cloudy 82 27.8 73 22.8 74 74 Calm 29.95 1014 9 14 0.00 0.00
11:53 am 11:53 Mostly Cloudy 83 28.3 73 22.8 72 72 S 8 13 29.97 1015 8 13 0.00 0.00
12:53 pm 12:53 Mostly Sunny 83 28.3 72 22.2 70 70 SSW 7 11 29.97 1015 8 13 0.00 0.00
1:53 pm 13:53 Mostly Cloudy 84 28.9 72 22.2 67 67 WSW 5 7 29.96 1015 7 11 0.00 0.00
2:53 pm 14:53 Mostly Cloudy 85 29.4 73 22.8 68 68 SSW 10 17 29.95 1014 7 11 0.00 0.00
3:53 pm 15:53 Partly Cloudy 85 29.4 74 23.3 70 70 SSW 9 15 29.94 1014 7 11 0.00 0.00
4:53 pm 16:53 Mostly Cloudy with Haze 84 28.9 74 23.3 72 72 S 7 11 29.93 1014 6 10 0.00 0.00
5:53 pm 17:53 Mostly Cloudy with Haze 83 28.3 76 24.4 79 79 Calm 29.93 1014 5 8 0.00 0.00
6:10 pm 18:10 Cloudy with Thunderstorms 79 26 70 21 74 74 NNW 10 17 29.94 1014 3 5 0.00 0.00
6:12 pm 18:12 Cloudy with Thunderstorms 79 26 72 22 79 79 NW 8 13 29.94 1014 2 3 0.00 0.00
6:19 pm 18:19 Cloudy with Heavy Rain 77 25 71 21.7 82 82 Calm 29.94 1014 4 6 0.26 6.60
6:28 pm 18:28 Cloudy with Heavy Rain 75 24 73 23 94 94 SE 8 13 29.94 1014 4 6 0.00 0.00
6:53 pm 18:53 Cloudy with Light Rain 73 23 N/A N/A SE 8 13 29.94 1014 4 6 0.90 22.86
7:13 pm 19:13 Mostly Cloudy 74 23.3 73 22.8 97 97 E 5 7 29.91 1013 7 11 0.01 0.25
7:53 pm 19:53 Mostly Sunny 74 23.3 72 22.2 94 94 NNW 3 6 29.93 1014 10 16 0.01 0.25
8:53 pm 20:53 Sunny with Mist and Fog 72 22.2 72 22.2 100 100 SSE 3 6 29.93 1014 6 10 0.00 0.00
9:53 pm 21:53 Clear with Mist and Fog 72 22.2 72 22.2 100 100 Calm 29.93 1014 6 10 0.00 0.00
10:53 pm 22:53 Clear with Mist and Fog 72 22.2 72 22.2 100 100 Calm 29.96 1015 6 10 0.00 0.00
11:53 pm 23:53 Mostly Cloudy with Mist and Fog 71 21.7 71 21.7 100 100 Calm 29.96 1014 4 6 0.00 0.00

Powered by AerisWeather